User: anonymous   Login
Location: Unspecified
(0.0000°N, 0.0000°E)
Time: 09:32:42
(UTC+00:00)
Language:

ESSA 6 - Orbit

View from above orbital plane
View from above orbital plane
View from above satellite
View from above satellite

Ground track
Ground track

The orbit data is extracted from the following two-line orbital elements,

1  3035U 67114A   17295.90635074 -.00000054 +00000-0 -34621-4 0  9999
2  3035 102.2307 281.7198 0048808 001.8731 027.3277 12.54215269286531
Epoch (UTC): 22 October 2017 21:45:08
Eccentricity: 0.0048808
inclination: 102.2307°
perigee height: 1409 km
apogee height: 1485 km
right ascension of ascending node: 281.7198°
argument of perigee: 1.8731°
revolutions per day: 12.54215269
mean anomaly at epoch: 27.3277°
orbit number at epoch: 28653

The dashed part of the orbit path shows where the satellite is in the earth's shadow,  

DLR